#timestamp,LO_Frequency,Hit,StdDev 
1649689215.7,286046999.3,N
1649689235.5,286046999.3,N
1649689255.4,286046997.1,Y
1649689275.2,286046998.5,P
1649689295.1,286046998.8,N
1649689296.0,286046998.8,P
1649689315.8,286046998.2,Y
1649689335.6,286047001.2,P
1649689355.5,286047000.5,N
1649689375.6,286047000.8,N
1649689395.5,286047001.2,N
1649689415.3,286046998.8,N
1649689435.2,286046998.1,N
1649689455.9,286046998.7,N
1649689475.7,286046999.3,N
1649689495.6,286047001.0,N
1649689515.4,286046998.2,N
1649689535.3,286047001.1,N
1649689555.1,286047000.6,N
1649689575.8,286046998.4,N
1649689595.7,286047000.8,N
1649689615.5,286047002.6,N
1649689635.4,286046999.8,N
1649689655.2,286046996.5,N
1649689675.0,286046999.0,N
1649689675.9,286046999.0,N
1649689695.8,286046998.7,N
1649689715.6,286046999.0,N
1649689735.4,286046999.0,N
1649689755.3,286047000.8,N
1649689775.1,286046998.9,N
1649689795.9,286046999.8,N
1649689815.7,286047001.1,N
1649689835.5,286047000.6,N
1649689855.4,286046999.7,N
1649689875.2,286047000.2,N
1649689895.0,286047002.5,N
1649689895.9,286047002.5,N
1649689915.8,286047002.3,N
1649689935.6,286047001.6,N
1649689955.5,286047001.4,N
1649689975.3,286047000.1,N
1649689995.1,286047000.3,N
1649690015.9,286047001.5,N
1649690035.7,286046999.8,N
1649690055.5,286047002.5,N
1649690075.4,286047002.7,N
1649690095.2,286047000.0,N
1649690115.1,286047000.3,N
1649690116.0,286047000.3,N
1649690135.8,286047002.7,N
1649690155.6,286047004.3,N
1649690175.5,286047002.5,N
1649690195.3,286047000.2,N
1649690215.2,286047000.4,N
1649690235.9,286047001.1,N
1649690255.7,286046998.1,N
1649690275.6,286047001.1,N
1649690295.4,286047002.4,N
1649690315.3,286046999.9,N
1649690335.1,286047001.9,N
1649690336.0,286047001.9,N
1649690355.8,286046999.9,N
1649690375.7,286046998.8,N
1649690395.5,286046998.7,N
1649690415.3,286047000.4,N
1649690435.2,286047000.8,N
1649690455.0,286047002.5,N
1649690455.9,286047002.5,N
1649690475.8,286047002.5,N
1649690495.6,286046999.7,N
1649690515.4,286047000.2,N
1649690535.3,286047002.8,N
1649690555.1,286047001.7,N
1649690575.8,286047002.1,N
1649690595.7,286047002.7,N
1649690615.5,286047003.7,N
1649690635.4,286047001.5,N
1649690655.2,286047002.2,N
1649690675.0,286047003.3,N
1649690675.9,286047003.3,N
1649690695.8,286047003.5,N
1649690715.6,286047003.5,N
1649690735.4,286047001.7,N
1649690755.3,286047004.3,N
1649690775.1,286047003.0,N
1649690795.9,286047001.4,N
1649690815.7,286047005.4,Y
1649690835.5,286047002.2,P
1649690855.4,286047001.4,P
1649690875.2,286047003.9,P
1649690895.1,286047004.2,Y
1649690896.0,286047004.2,P
1649690915.8,286047000.6,N
1649690935.6,286046998.4,N
1649690955.5,286046998.7,N
1649690975.3,286046996.5,N
1649690995.1,286046995.3,N
1649691015.9,286046997.8,N
1649691035.7,286046995.6,N
1649691055.6,286046995.4,N
1649691075.4,286046997.6,N
1649691095.2,286046997.9,N
1649691115.1,286046997.4,N
1649691116.0,286046997.4,N
1649691135.8,286046997.0,N
1649691155.6,286046998.4,N
1649691175.5,286046999.3,N
1649691195.3,286047000.3,N
1649691215.2,286047001.1,N
1649691235.9,286046999.2,N
1649691255.7,286046997.3,N
1649691275.6,286046997.1,N
1649691295.4,286046996.3,N
1649691315.2,286046996.3,N
1649691335.1,286046996.2,N
1649691336.0,286046996.2,N
1649691355.8,286046996.2,N
1649691375.7,286046995.0,N
1649691395.5,286046995.3,N
1649691415.3,286046995.7,N
1649691435.2,286046997.8,N
1649691455.0,286046998.0,N
1649691455.9,286046998.0,N
1649691475.8,286046997.9,N
1649691495.6,286046996.8,N
1649691515.4,286046999.4,N
1649691535.3,286046999.2,N
1649691555.1,286046997.5,N
1649691575.9,286046995.5,Y
1649691595.7,286046999.5,P
1649691615.5,286046998.8,N
1649691635.4,286046996.6,P
1649691655.2,286046999.6,N
1649691675.0,286046999.4,N
1649691675.9,286046999.4,N
1649691695.8,286046999.5,N
1649691715.6,286046998.4,N
1649691735.5,286047000.9,N
1649691755.3,286047001.2,N
1649691775.1,286046998.6,N
1649691795.9,286046998.8,N
1649691815.7,286047000.8,N
1649691835.5,286047000.8,N
1649691855.4,286046998.3,N
1649691875.2,286047000.0,N
1649691895.1,286047000.7,N
1649691896.0,286047000.7,N
1649691915.8,286047000.8,N
1649691935.6,286047000.7,N
1649691955.5,286046998.2,N
1649691975.3,286047001.0,N
1649691995.2,286046998.2,N
1649692015.9,286046998.7,N
1649692035.7,286046999.0,N
1649692055.6,286046999.6,N
1649692075.4,286046998.7,N
1649692095.2,286046998.7,N
1649692115.1,286047001.2,N
1649692116.0,286047001.2,N
1649692135.8,286046998.7,N
1649692155.7,286046998.7,N
1649692175.5,286046998.7,N
1649692195.3,286046998.4,N
1649692215.2,286047002.8,N
1649692235.0,286046998.1,N
1649692235.9,286046998.1,N
1649692255.7,286046998.2,N
1649692275.6,286046998.8,N
1649692295.4,286047001.1,N
1649692315.3,286046999.4,N
1649692335.1,286046997.2,N
1649692336.0,286046997.2,N
1649692355.8,286046997.0,N
1649692375.7,286046998.7,N
1649692395.5,286047001.1,N
1649692415.3,286047000.7,N
1649692435.2,286046998.2,N
1649692455.0,286047001.0,N
1649692455.9,286047001.0,N
1649692475.8,286047000.9,N
1649692495.6,286047001.0,N
1649692515.4,286047002.2,N
1649692535.3,286047000.4,N
1649692555.1,286046998.7,N
1649692575.9,286046998.4,N
1649692595.7,286046999.3,N
1649692615.5,286046998.9,N
1649692635.4,286046998.3,N
1649692655.2,286047001.0,N
1649692675.0,286046998.1,N
1649692675.9,286046998.1,N
1649692695.8,286046998.5,N
1649692715.6,286047001.0,N
1649692735.5,286046999.9,N
1649692755.3,286047000.4,N
1649692775.1,286046998.6,N
1649692795.9,286046998.3,N
